Flag for Sudan Weather past 2 weeks in Kassala, Sudan

Now
N/A

Clear.


Feels Like: N/A
Forecast: 74 / 90 °F
Wind: 5 mph from South

Location: Khartoum Airport

Current Time: Sep 2, 2014 at 10:47:52 PM

Latest Report: Sep 2, 2014 at 9:30 PM


Visibility: 10 mi

Pressure: 29.80 "Hg

Humidity: N/A

Dew point: N/A

Location of KassalaLocation

Historic Weather in Kassala — Graph

°F

Kassala temperature yesterday

Maximum temperature yesterday: 88 °F (at 12:00 AM)
Minimum temperature yesterday: 73 °F (at 5:00 AM)
Average temperature yesterday: 82 °F

Past Weeks' High & Low Weather Summary

 TemperatureHumidityPressure
High104 °F (Aug 29, 7:00 AM)84% (Aug 30, 6:00 AM)30.07 "Hg (Aug 30, 6:00 AM)
Low73 °F (Sep 1, 5:00 AM)24% (Aug 21, 5:00 PM)29.68 "Hg (Aug 22, 4:30 PM)
Average87 °F52%29.84 "Hg
* Reported Aug 18 9:00 PM — Sep 2 9:30 PM, Kassala, Weather by CustomWeather, © 2014

Note: Actual official high and low records may vary slightly from our data, if they occured in-between our weather recording intervals... More about our weather records

Advertising

Kassala weather history for previous 24 hours

 ConditionsComfort  
Time TempWeatherWind HumidityBarometerVisibility
9:30 PM
Sep 2
N/AClear.5 mphN/A29.80 "Hg10 mi
9:00 PM93 °FClear.8 mph39%29.80 "Hg10 mi
8:30 PMN/AClear.5 mphN/A29.77 "Hg10 mi
8:00 PM93 °FClear.8 mph36%29.77 "Hg10 mi
7:30 PMN/AClear.7 mphN/A29.77 "Hg10 mi
7:00 PM95 °FSunny.7 mph34%29.74 "Hg10 mi
6:30 PMN/ASunny.9 mphN/A29.74 "Hg10 mi
6:00 PM95 °FSunny.9 mph34%29.74 "Hg10 mi
5:30 PMN/ASunny.8 mphN/A29.74 "Hg10 mi
5:00 PM97 °FSunny.7 mph34%29.77 "Hg10 mi
4:30 PMN/A10 mphN/AN/AN/A
4:00 PM95 °FExtremely hot.12 mph39%29.80 "HgN/A
3:30 PMN/A10 mphN/AN/AN/A
3:00 PM95 °FExtremely hot.10 mph39%29.80 "HgN/A
2:30 PMN/A10 mphN/AN/AN/A
2:00 PM95 °FExtremely hot.13 mph39%29.83 "HgN/A
1:30 PMN/ASunny.7 mphN/A29.83 "Hg10 mi
1:00 PM93 °FSunny.12 mph41%29.86 "Hg10 mi
12:30 PMN/ASunny.13 mphN/A29.86 "Hg10 mi
12:00 PM91 °FSunny.9 mph41%29.86 "Hg10 mi
11:30 AMN/ASunny.12 mphN/A29.86 "Hg10 mi
11:00 AM90 °FSunny.8 mph43%29.86 "Hg10 mi
10:30 AMN/ASunny.12 mphN/A29.89 "Hg10 mi
10:00 AM86 °FSunny.10 mph59%29.89 "Hg10 mi
9:30 AMN/ASunny.9 mphN/A29.89 "Hg10 mi
9:00 AM84 °FSunny.8 mph62%29.89 "Hg10 mi
8:30 AMN/ASunny.9 mphN/A29.89 "Hg10 mi
8:00 AM82 °FSunny.7 mph74%29.89 "Hg10 mi
7:30 AMN/ASunny.5 mphN/A29.86 "Hg10 mi
7:00 AM81 °FSunny.9 mph70%29.86 "Hg10 mi
6:30 AMN/AClear.8 mphN/A29.86 "Hg10 mi
6:00 AM81 °FClear.8 mph74%29.86 "Hg10 mi
5:30 AMN/AClear.8 mphN/A29.83 "Hg10 mi
5:00 AM81 °FClear.9 mph74%29.83 "Hg10 mi
4:30 AMN/AClear.7 mphN/A29.83 "Hg10 mi
4:00 AM81 °FClear.8 mph70%29.80 "Hg10 mi
3:30 AMN/AClear.6 mphN/A29.80 "Hg10 mi
3:00 AM82 °FClear.6 mph70%29.83 "Hg10 mi
2:30 AMN/AClear.7 mphN/A29.83 "Hg10 mi
2:00 AM82 °FClear.7 mph70%29.83 "Hg10 mi
1:30 AMN/AClear.7 mphN/A29.83 "Hg10 mi
1:00 AM82 °FClear.8 mph70%29.83 "Hg10 mi
12:30 AMN/AClear.8 mphN/A29.83 "Hg10 mi
12:00 AM84 °FClear.12 mph62%29.86 "Hg10 mi
11:30 PM
Sep 1
N/AClear.12 mphN/A29.86 "Hg10 mi
11:00 PM84 °FClear.8 mph58%29.86 "Hg10 mi
10:30 PMN/AClear.7 mphN/A29.86 "Hg10 mi
10:00 PM84 °FClear.8 mph55%29.83 "Hg10 mi
Weather by CustomWeather, © 2014

See weather overviewHow to use our weather pages